Date String (YYYY-MM-DD hh:mm:ss) UTC,Instrument flags,absolute air pressure of the measurement (hPa),sample flow rate (lpm),inlet stack bypass flow (lpm),air temperature of the measurement (°C),ambient temperature measured by the external sensor (°C),aerosol sample conditioner tube jacket temperature (°C),OPC LED temperature (°C),internal box temperature (°C),relative humidity of the measurement (%),span deviation,mass concentration of particles derived from Lorenz-Mie calculation of OPC scattering (μg/m³),mass concentration of particles derived from Lorenz-Mie calculation of OPC scattering (μg/m³),mass concentration of particles derived from Lorenz-Mie calculation of OPC scattering (μg/m³)
DateTimeUTC,F1_M11,P_M11,Q1_M11,Q2_M11,T1_M11,T2_M11,T3_M11,T4_M11,T5_M11,U1_M11,ZSPAN_M11,X2_M11,X0_M11,X1_M11
2024-06-14 19:00:00,SystemResetWarning,0831.5,5.01,000.00,028.7,025.5,000.0,037.6,029.5,041.2,0000.6,0014.19,0042.33,0010.84
2024-06-14 19:01:00,SystemResetWarning,0831.5,5.00,000.00,028.6,025.9,000.0,037.5,029.7,041.2,0000.1,0014.01,0041.69,0010.77
2024-06-14 19:02:00,SystemResetWarning,0831.5,5.00,000.00,028.6,026.4,000.0,037.4,030.0,041.4,-000.1,0013.95,0040.89,0010.72
2024-06-14 19:03:00,SystemResetWarning,0831.5,5.01,000.00,028.7,026.9,000.0,037.3,030.3,041.5,0000.2,0013.98,0041.05,0010.70
2024-06-14 19:04:00,SystemResetWarning,0831.4,5.00,000.00,028.8,027.3,000.0,037.3,030.5,041.4,-000.0,0014.06,0041.60,0010.72
2024-06-14 19:05:00,SystemResetWarning,0831.4,5.00,000.00,028.8,027.6,000.0,037.3,030.6,041.1,0000.2,0014.14,0041.83,0010.77
2024-06-14 19:06:00,SystemResetWarning,0831.4,5.00,000.00,028.9,027.9,000.0,037.3,030.7,041.1,-000.1,0014.13,0040.05,0010.84
2024-06-14 19:07:00,SystemResetWarning,0831.4,4.99,000.00,029.0,028.2,000.0,037.3,030.9,041.0,-000.2,0014.16,0040.00,0010.91
2024-06-14 19:08:00,SystemResetWarning,0831.3,4.99,000.00,029.1,028.4,000.0,037.3,031.0,041.1,-000.1,0014.23,0040.57,0010.95
2024-06-14 19:09:00,SystemResetWarning,0831.3,5.00,000.00,029.1,028.6,000.0,037.3,031.1,041.0,-000.1,0014.29,0042.32,0010.97
2024-06-14 19:10:00,SystemResetWarning,0831.3,5.00,000.00,029.2,028.7,000.0,037.4,031.2,040.0,-000.4,0014.37,0043.54,0010.96
2024-06-14 19:11:00,SystemResetWarning,0831.4,5.01,000.00,029.3,028.9,000.0,037.4,031.2,040.1,-000.6,0014.35,0042.61,0010.92
2024-06-14 19:12:00,SystemResetWarning,0831.4,5.01,000.00,029.4,029.0,000.0,037.4,031.3,039.2,-000.5,0014.39,0042.33,0010.86
2024-06-14 19:13:00,SystemResetWarning,0831.4,4.99,000.00,029.5,029.1,000.0,037.5,031.4,037.8,-000.8,0014.21,0043.88,0010.71
2024-06-14 19:14:00,SystemResetWarning,0831.3,4.99,000.00,029.5,029.2,000.0,037.5,031.5,037.9,-001.0,0013.89,0042.92,0010.52
2024-06-14 19:15:00,SystemResetWarning,0831.3,5.00,000.00,029.6,028.6,000.0,037.6,031.2,037.8,-000.6,0013.54,0043.95,0010.28
2024-06-14 19:16:00,SystemResetWarning,0831.2,5.00,000.00,029.2,026.3,000.0,037.7,030.1,038.5,-000.9,0013.15,0044.45,0009.98
2024-06-14 19:17:00,SystemResetWarning,0831.2,5.01,000.00,028.8,025.2,000.0,037.7,029.5,039.3,-000.7,0012.82,0044.37,0009.69
2024-06-14 19:18:00,SystemResetWarning,0831.1,5.01,000.00,028.6,025.3,000.0,037.6,029.5,040.1,-000.4,0012.49,0043.16,0009.41
2024-06-14 19:19:00,SystemResetWarning,0831.1,4.99,000.00,028.6,025.8,000.0,037.4,029.7,040.8,-000.6,0012.21,0041.69,0009.17
2024-06-14 19:20:00,SystemResetWarning,0831.2,5.01,000.00,028.6,026.3,000.0,037.3,030.0,040.8,-000.5,0011.90,0039.80,0008.95
2024-06-14 19:21:00,SystemResetWarning,0831.3,5.00,000.00,028.6,026.8,000.0,037.3,030.2,039.9,-000.0,0011.73,0039.22,0008.76
2024-06-14 19:22:00,SystemResetWarning,0831.3,5.00,000.00,028.7,027.2,000.0,037.2,030.4,039.9,0000.4,0011.53,0041.05,0008.61
2024-06-14 19:23:00,SystemResetWarning,0831.3,5.00,000.00,028.8,027.6,000.0,037.2,030.6,040.1,0000.5,0011.30,0040.38,0008.46
2024-06-14 19:24:00,SystemResetWarning,0831.4,5.00,000.00,028.8,027.8,000.0,037.2,030.7,039.8,0001.1,0011.22,0039.51,0008.38
2024-06-14 19:25:00,SystemResetWarning,0831.4,5.01,000.00,028.9,028.1,000.0,037.2,030.8,039.9,0001.3,0011.27,0041.60,0008.34
2024-06-14 19:26:00,SystemResetWarning,0831.4,5.00,000.00,029.0,028.3,000.0,037.3,030.9,039.7,0001.5,0011.30,0040.80,0008.32
2024-06-14 19:27:00,SystemResetWarning,0831.5,5.01,000.00,029.1,028.4,000.0,037.3,031.0,039.6,0002.5,0011.34,0039.77,0008.35
2024-06-14 19:28:00,SystemResetWarning,0831.5,5.01,000.00,029.1,028.6,000.0,037.3,031.1,039.7,0002.7,0011.39,0040.15,0008.35
2024-06-14 19:29:00,SystemResetWarning,0831.4,5.00,000.00,029.2,028.7,000.0,037.4,031.1,039.9,0002.5,0011.47,0040.53,0008.37
2024-06-14 19:30:00,SystemResetWarning,0831.4,5.00,000.00,029.3,028.9,000.0,037.4,031.2,039.7,0002.5,0011.46,0041.32,0008.40
2024-06-14 19:31:00,SystemResetWarning,0831.4,5.00,000.00,029.4,029.0,000.0,037.4,031.3,039.8,0002.8,0011.56,0042.72,0008.47
2024-06-14 19:32:00,SystemResetWarning,0831.5,5.01,000.00,029.4,029.0,000.0,037.5,031.4,039.8,0002.8,0011.68,0042.23,0008.54
2024-06-14 19:33:00,SystemResetWarning,0831.5,5.00,000.00,029.5,029.1,000.0,037.5,031.4,039.5,0003.0,0011.83,0040.69,0008.63
2024-06-14 19:34:00,SystemResetWarning,0831.5,4.99,000.00,029.6,029.2,000.0,037.6,031.5,039.5,0002.9,0012.00,0040.65,0008.73
2024-06-14 19:35:00,SystemResetWarning,0831.5,4.99,000.00,029.6,029.3,000.0,037.6,031.6,039.5,0002.9,0012.24,0039.21,0008.86
2024-06-14 19:36:00,SystemResetWarning,0831.5,4.99,000.00,029.7,029.3,000.0,037.7,031.6,039.5,0002.8,0012.38,0035.74,0009.00
2024-06-14 19:37:00,SystemResetWarning,0831.5,5.00,000.00,029.7,028.4,000.0,037.7,031.1,039.7,0002.5,0012.56,0035.02,0009.17
2024-06-14 19:38:00,SystemResetWarning,0831.4,5.00,000.00,029.4,026.6,000.0,037.8,030.4,040.4,0001.7,0012.73,0035.20,0009.31
2024-06-14 19:39:00,SystemResetWarning,0831.4,5.01,000.00,029.1,026.2,000.0,037.8,030.1,040.8,0001.6,0012.80,0035.65,0009.43
2024-06-14 19:40:00,SystemResetWarning,0831.4,5.02,000.00,029.0,026.6,000.0,037.7,030.2,041.2,0001.6,0012.88,0035.99,0009.55
2024-06-14 19:41:00,SystemResetWarning,0831.4,5.00,000.00,029.0,027.0,000.0,037.6,030.4,041.2,0001.1,0012.97,0035.94,0009.67
2024-06-14 19:42:00,SystemResetWarning,0831.3,4.99,000.00,029.1,027.4,000.0,037.5,030.7,041.4,0000.7,0013.04,0035.71,0009.76
2024-06-14 19:43:00,SystemResetWarning,0831.4,5.00,000.00,029.1,027.7,000.0,037.5,030.8,041.1,0000.9,0013.06,0034.46,0009.87
2024-06-14 19:44:00,SystemResetWarning,0831.3,5.01,000.00,029.2,028.0,000.0,037.5,030.9,040.9,0000.9,0013.08,0034.27,0009.98
2024-06-14 19:45:00,SystemResetWarning,0831.3,5.00,000.00,029.2,028.2,000.0,037.5,031.0,040.9,0001.2,0013.18,0036.12,0010.06
2024-06-14 19:46:00,SystemResetWarning,0831.3,4.99,000.00,029.3,028.4,000.0,037.5,031.1,040.8,0001.4,0013.20,0037.27,0010.12
2024-06-14 19:47:00,SystemResetWarning,0831.3,5.00,000.00,029.3,028.6,000.0,037.6,031.2,040.7,0001.5,0013.26,0038.28,0010.16
2024-06-14 19:48:00,SystemResetWarning,0831.3,5.00,000.00,029.4,028.8,000.0,037.6,031.3,040.5,0001.2,0013.26,0038.86,0010.20
2024-06-14 19:49:00,SystemResetWarning,0831.2,5.00,000.00,029.5,028.9,000.0,037.6,031.3,040.4,0001.1,0013.35,0038.93,0010.24
2024-06-14 19:50:00,SystemResetWarning,0831.2,5.00,000.00,029.5,029.0,000.0,037.6,031.4,040.4,0001.4,0013.52,0039.58,0010.30
2024-06-14 19:51:00,SystemResetWarning,0831.2,5.00,000.00,029.6,029.1,000.0,037.7,031.5,040.0,0001.7,0013.69,0040.24,0010.36
2024-06-14 19:52:00,SystemResetWarning,0831.2,5.00,000.00,029.6,029.2,000.0,037.7,031.5,039.6,0002.0,0013.69,0039.77,0010.35
2024-06-14 19:53:00,SystemResetWarning,0831.2,5.00,000.00,029.7,029.3,000.0,037.8,031.6,039.7,0002.2,0013.67,0040.03,0010.31
2024-06-14 19:54:00,SystemResetWarning,0831.2,5.00,000.00,029.8,029.3,000.0,037.8,031.7,039.6,0001.8,0013.71,0041.91,0010.29
2024-06-14 19:55:00,SystemResetWarning,0831.1,4.99,000.00,029.8,028.7,000.0,037.9,031.3,039.6,0001.4,0013.73,0044.33,0010.28
2024-06-14 19:56:00,SystemResetWarning,0830.9,5.00,000.00,029.5,026.8,000.0,037.9,030.5,040.2,0001.3,0013.66,0045.15,0010.25
2024-06-14 19:57:00,SystemResetWarning,0830.9,5.02,000.00,029.2,026.4,000.0,037.9,030.2,040.8,0000.9,0013.60,0044.91,0010.21
2024-06-14 19:58:00,SystemResetWarning,0830.9,4.99,000.00,029.1,026.7,000.0,037.8,030.3,041.3,0000.9,0013.48,0044.35,0010.19
2024-06-14 19:59:00,SystemResetWarning,0830.9,5.00,000.00,029.1,027.1,000.0,037.7,030.5,041.0,0001.0,0013.47,0043.36,0010.15
